Location: El Bakhil
(32.7726°N, 5.5387°W)
Time: 04:50:33
(UTC+00:00)

BREEZE-M DEB (TANK) - Pass Details

Date: 03 March 2021
Orbit: 334 x 11905 km, 49.7° (Epoch: 12 April)

Event Time Altitude Azimuth Distance (km) Brightness Sun altitude
Rises 18:54:17 0° 225° (SW) 3,136 8.1 -7.8°
Reaches altitude 10° 18:57:12 10° 223° (SW) 1,662 6.6 -8.4°
Maximum altitude 19:00:15 73° 138° (SE) 370 2.4 -9.0°
Enters shadow 19:02:33 10° 53° (NE) 1,260 4.8 -9.5°
